CWHN

Jimmy Lake  Airport

Jimmy Lake, Canada
Issued Wind Visibility Ceiling Temperature Dew Point Humidity Barometer
Nov-20
11:00 UTC
300°
12 KTS
Gust 19 KTS
9 miles Overcast
1,300' AGL
-13° C
F
-16° C
F
78% 29.35" Hg
998.5 hPa
MVFR
Nov-20
10:00 UTC
320°
16 KTS
Gust 21 KTS
9 miles   -12° C
10° F
-15° C
F
79% 29.29" Hg
996.4 hPa
VFR
Nov-20
09:00 UTC
300°
7 KTS
9 miles Overcast
1,100' AGL
-8° C
18° F
-10° C
14° F
86% 29.25" Hg
994.6 hPa
MVFR
Nov-20
08:20 UTC
250°
3 KTS
9 miles Broken
1,300' AGL
-9° C
16° F
-11° C
12° F
86% 29.25" Hg
991 hPa
MVFR
Nov-20
08:06 UTC
170°
3 KTS
2 1/2 miles   -9° C
16° F
-11° C
12° F
86% 29.24" Hg
990 hPa
IFR
Nov-20
07:05 UTC
280°
2 KTS
2 1/4 miles Broken
1,000' AGL
-9° C
16° F
-11° C
12° F
86% 29.23" Hg
990 hPa
IFR
Nov-20
06:07 UTC
250°
3 KTS
9 miles   -10° C
14° F
-11° C
12° F
92% 29.22" Hg
990 hPa
VFR
Nov-20
02:00 UTC
120°
6 KTS
9 miles Overcast
600' AGL
-9° C
16° F
-11° C
12° F
86% 29.26" Hg
995.2 hPa
IFR
Nov-20
01:00 UTC
110°
9 KTS
9 miles Overcast
600' AGL
-9° C
16° F
-11° C
12° F
86% 29.28" Hg
996 hPa
IFR
Nov-20
00:00 UTC
120°
6 KTS
9 miles Overcast
700' AGL
-9° C
16° F
-11° C
12° F
86% 29.33" Hg
997.7 hPa
IFR
Nov-19
23:00 UTC
120°
8 KTS
9 miles Overcast
700' AGL
-9° C
16° F
-11° C
12° F
86% 29.34" Hg
998 hPa
IFR
Nov-19
22:00 UTC
110°
9 KTS
9 miles Overcast
700' AGL
-9° C
16° F
-11° C
12° F
86% 29.37" Hg
998.9 hPa
IFR
Nov-19
21:00 UTC
110°
11 KTS
9 miles Overcast
700' AGL
-9° C
16° F
-11° C
12° F
86% 29.41" Hg
1000.3 hPa
IFR
Nov-19
20:00 UTC
110°
11 KTS
9 miles Overcast
700' AGL
-9° C
16° F
-11° C
12° F
86% 29.46" Hg
1002 hPa
IFR
Nov-19
19:00 UTC
100°
9 KTS
9 miles Overcast
800' AGL
-10° C
14° F
-12° C
10° F
85% 29.52" Hg
1004.3 hPa
IFR
Nov-19
18:00 UTC
100°
7 KTS
9 miles Overcast
1,000' AGL
-11° C
12° F
-12° C
10° F
92% 29.59" Hg
1006.5 hPa
MVFR
Nov-19
17:35 UTC
090°
9 KTS
3 miles Broken
1,200' AGL
-11° C
12° F
-13° C
F
85% 29.6" Hg
1002 hPa
MVFR
Nov-19
17:00 UTC
080°
8 KTS
1 3/4 miles Overcast
0' AGL
-11° C
12° F
-13° C
F
85% 29.61" Hg
1007.6 hPa
LIFR
Nov-19
16:00 UTC
080°
8 KTS
1 miles Overcast
0' AGL
-12° C
10° F
-13° C
F
92% 29.65" Hg
1008.8 hPa
LIFR
Nov-19
15:22 UTC
070°
7 KTS
3/4 miles Overcast
0' AGL
-12° C
10° F
-13° C
F
92% 29.68" Hg
1005 hPa
LIFR
Nov-19
15:00 UTC
070°
7 KTS
3/4 miles Overcast
0' AGL
-12° C
10° F
-13° C
F
92% 29.69" Hg
1010.3 hPa
LIFR
Nov-19
14:08 UTC
070°
5 KTS
1 1/4 miles Overcast
0' AGL
-12° C
10° F
-13° C
F
92% 29.7" Hg
1006 hPa
LIFR
Nov-19
13:03 UTC
070°
5 KTS
5 miles Overcast
300' AGL
-12° C
10° F
-13° C
F
92% 29.73" Hg
1007 hPa
LIFR
Nov-19
12:00 UTC
060°
5 KTS
6 miles Overcast
100' AGL
-11° C
12° F
-13° C
F
85% 29.74" Hg
1011.8 hPa
LIFR
Nov-19
11:38 UTC
060°
5 KTS
6 miles Overcast
100' AGL
-11° C
12° F
-13° C
F
85% 29.75" Hg
1007 hPa
LIFR